Regional Weather Roundup
Issued by NWS Goodland, KS

Home | Current Version | Previous Version | Text Only | Print | Product List | Glossary On
Versions: 1 2 3 4 5 6 7 8 9 10 11 12 13 14 15 16 17 18 19 20 21 22 23 24 25 26 27 28 29 30 31 32 33 34 35 36 37 38 39 40 41 42 43 44 45 46 47 48 49 50
000
ASUS43 KGLD 310408
RWRGLD

GOODLAND FORECAST AREA HOURLY WEATHER ROUNDUP
NATIONAL WEATHER SERVICE GOODLAND KS
900 PM MST FRI JAN 30 2015

...OFFICIAL OBSERVATIONS...

CITY           SKY/WX    TMP DP  RH WIND       PRES   REMARKS
GOODLAND KS    CLOUDY    33  32  96 S15       30.11F
HILL CITY KS   LGT SNOW  34  32  92 S6        30.23F FOG
IMPERIAL NEB   CLOUDY    38  31  76 S10       30.11S
MCCOOK NEB     CLOUDY    37  34  89 S6        30.17F
AKRON CO       MOCLDY    34  28  79 CALM      30.04S
BURLINGTON CO  CLOUDY    33  31  92 S14       30.08F
LIMON CO       CLOUDY    34  32  92 CALM      30.05F
$$

...UNOFFICIAL OBSERVATIONS...

CITY           SKY/WX    TMP DP  RH WIND       PRES   REMARKS
GOVE KS          N/A     35  32  89 MISG        N/A
SHARON SPRINGS   N/A     33  30  90 S16         N/A
KIT CARSON CO    N/A     33  31  94 MISG        N/A
YUMA CO          N/A     36  31  83 S9          N/A
$$



USA.gov is the U.S. government's official web portal to all federal, state and local government web resources and services.